Regional Weather Roundup
Issued by NWS

Home | Current Version | Previous Version | Text Only | Print | Product List | Glossary Off
Versions: 1 2 3 4 5 6 7 8 9 10 11 12 13 14 15 16 17 18 19 20 21 22 23 24 25 26 27 28 29 30 31 32 33 34 35 36 37 38 39 40 41 42 43 44 45 46 47 48 49 50

623
ASUS43 KMKX 112310
RWRWI

WISCONSIN REGIONAL WEATHER ROUNDUP
NATIONAL WEATHER SERVICE MILWAUKEE/SULLIVAN WI
500 PM CST THU FEB 11 2016

NOTE: "FAIR" INDICATES FEW OR NO CLOUDS BELOW 12,000 FEET WITH NO
SIGNIFICANT WEATHER AND/OR OBSTRUCTIONS TO VISIBILITY.

WIZ001-002-006>008-014>016-023>028-120000-
NORTHWEST WISCONSIN

CITY           SKY/WX    TMP DP  RH WIND       PRES   REMARKS
SUPERIOR ARPT  CLOUDY    17  -3  41 W7        30.19S WCI   7
ASHLAND        CLOUDY    13  -4  46 SW9       30.16S WCI   1
HAYWARD        CLOUDY    13  -7  40 SW7       30.16R WCI   3
SIREN          CLOUDY    14  -3  47 W7        30.21R WCI   4
CUMBERLAND     CLOUDY    12   0  57 SW7       30.18R WCI   2
RICE LAKE      CLOUDY    13  -2  49 SW7       30.21S WCI   3
CHETEK         CLOUDY    14  -4  45 W5        30.20S WCI   6
LADYSMITH      CLOUDY    14  -6  40 SW8       30.18S WCI   3
EAU CLAIRE     CLOUDY    15  -3  44 W6        30.22R WCI   6
MENOMONIE      CLOUDY    18  -1  43 S8        30.22S WCI   8
NEW RICHMOND   CLOUDY    15   1  54 SW6       30.22S WCI   6
OSCEOLA        CLOUDY    17   1  49 W7        30.26R WCI   7
$$

WIZ003>005-009-010-017-018-120000-
NORTH CENTRAL WISCONSIN

CITY           SKY/WX    TMP DP  RH WIND       PRES   REMARKS
MANITOWISH WTR CLOUDY    12  -4  47 SW10      30.07F WCI  -1
ARBOR VITAE    CLOUDY    14  -3  46 SW6       30.07F WCI   5
WOODRUFF       CLOUDY    14  -3  46 SW6       30.07F WCI   5
RHINELANDER    CLOUDY    12  -4  48 W6        30.09F WCI   3
EAGLE RIVER    CLOUDY    12  -5  46 SW8       30.08F WCI   1
LAND O LAKES   PTCLDY    13  -3  50 SW5       30.07F WCI   5
PHILLIPS       CLOUDY    13  -4  48 SW9       30.11S WCI   0
TOMAHAWK       CLOUDY    14  -8  37 W5        30.12F WCI   6
MEDFORD        CLOUDY    11  -4  51 SW6       30.13F WCI   1
MERRILL        CLOUDY    13  -1  53 SW9       30.16S WCI   1
$$

WIZ029-030-035-036-043>047-120000-
CENTRAL WISCONSIN

CITY           SKY/WX    TMP DP  RH WIND       PRES   REMARKS
WAUSAU         CLOUDY    13  -4  46 W8        30.16S WCI   2
MOSINEE        CLOUDY    12  -2  52 W7        30.18S WCI   2
MARSHFIELD     CLOUDY    15  -6  39 W3        30.16F
STEVENS POINT  MOCLDY    13  -4  46 W3        30.19S
WAUPACA        CLEAR     18  -3  40 SW6       30.21F WCI  10
WAUTOMA        CLEAR     17  -5  37 W8        30.22F WCI   7
WISC RAPIDS    MOCLDY    18  -7  32 W6        30.21F WCI  10
CAMP DOUGLAS   CLEAR     16  -3  42 SW7       30.21F WCI   6
$$

WIZ011>013-019>022-031-037>040-048>050-120000-
NORTHEAST WISCONSIN

CITY           SKY/WX    TMP DP  RH WIND       PRES   REMARKS
ANTIGO         CLOUDY    11  -2  54 SW9       30.11S WCI  -1
SHAWANO        CLEAR     20  -6  31 W5        30.19S WCI  13
OCONTO         CLEAR     17  -1  45 SW8       30.18F WCI   7
STURGEON BAY   CLEAR     16   0  48 SW12G17   30.20S WCI   3
GREEN BAY      CLEAR     16  -2  45 SW8       30.20F WCI   5
MANITOWOC      CLEAR     15   2  56 W12       30.23S WCI   2
APPLETON       PTCLDY    16  -6  38 SW14      30.19S WCI   1
CLINTONVILLE   CLEAR     18  -6  35 W7        30.19S WCI   8
OSHKOSH        CLEAR     16  -2  45 CALM      30.22S
$$

WIZ032>034-041-042-053>061-120000-
SOUTHWEST WISCONSIN

CITY           SKY/WX    TMP DP  RH WIND       PRES   REMARKS
LA CROSSE      MOCLDY    16  -1  47 S10       30.26R WCI   4
SPARTA         MOCLDY    18  -3  40 W5        30.24S WCI  11
VIROQUA        CLEAR     13  -1  52 SW7       30.21S WCI   3
BOSCOBEL       PTCLDY    19   1  45 SW8       30.27S WCI   9
PRAIRIE DU CHI MOCLDY    18  -1  44 W5        30.28R WCI  11
PLATTEVILLE    CLOUDY    17   2  54 CALM      30.25S
$$

WIZ056-057-062-063-064-067-068-120000-
SOUTH CENTRAL WISCONSIN

CITY           SKY/WX    TMP DP  RH WIND       PRES   REMARKS
REEDSBURG      CLEAR     17  -4  39 SW5       30.22F WCI  10
BARABOO/DELLS  CLEAR     17  -5  37 SW6       30.21F WCI   8
LONE ROCK      CLEAR     17   0  47 SW8       30.26S WCI   7
MINERAL POINT  CLEAR     18   0  45 W5        30.23S WCI  11
MADISON        PTCLDY    18  -5  36 VRB3      30.23F
MIDDLETON      PTCLDY    20   0  41 SW7       30.23F WCI  11
WATERTOWN      CLEAR     17  -1  45 CALM      30.24F
MONROE         PTCLDY    18   1  49 W6        30.23S WCI   9
JANESVILLE     PTCLDY    21   0  39 W7        30.26S WCI  13
$$

WIZ051-052-058>065-066-070>072-120000-
SOUTHEAST WISCONSIN

CITY           SKY/WX    TMP DP  RH WIND       PRES   REMARKS
MILWAUKEE      PTCLDY    19  -2  39 W7        30.26F WCI  10
WAUKESHA       CLEAR     16  -2  45 SW7       30.25F WCI   6
MILWAUKEE/TIMM CLEAR     18  -2  41 W8        30.26S WCI   7
RACINE         CLEAR     18   0  45 W7        30.28S WCI   9
BURLINGTON     CLEAR     16  -1  48 W5        30.26S WCI   9
KENOSHA        CLEAR     18   3  52 W7        30.26S WCI   9
FOND DU LAC    CLEAR     15  -1  49 SW7       30.23S WCI   5
SHEBOYGAN      CLEAR     13   1  59 W8        30.23S WCI   2
WEST BEND      CLEAR     16   0  48 CALM      30.23S
JUNEAU         CLEAR     14   1  55 SW8       30.24F WCI   3
$$

LSZ147-162-120000-
LAKE SUPERIOR

STATION/POSITION TIME  TEMP    WIND        PRES    WAVE
                       AIR SEA DIR/SP/G            HT/PER
                 (UTC) (F)     (DEG/KT/KT) (MB)    (FT/S)
DEVILS ISLAND    2300   17     250/ 21/ 26 1021.7F
PORT WING        2200   15     250/ 10/ 15 1021.7
SAXON HARBOR     2230   16                 1020.7F
$$

LMZ867-665-643>646-120000-
LAKE MICHIGAN

STATION/POSITION TIME  TEMP    WIND        PRES    WAVE
                       AIR SEA DIR/SP/G            HT/PER
                 (UTC) (F)     (DEG/KT/KT) (MB)    (FT/S)
CHAMBERS ISLAND  2200   17     180/  6/ 10 1021.7F
ALGOMA LAKESHORE 2041          250/  7/ 12   N/A
KEWAUNEE LAKESHO 2200   16                 1022.1F
SHEBOYGAN LAKESH 2300   17     260/ 10/ 11 1025.6R
PORT WASHINGTON  2200   19     260/  7/ 12 1025.4
MILWAUKEE LAKESH 2210   19     280/  9/ 11   N/A
KENOSHA   LAKESH 2300   19     270/  8/  9 1025.1S
$$

TC  - TEMPERATURE IN CELSIUS
VSB - VISIBILITY IN STATUTE MILES
WCI - WIND CHILL INDEX
HX  - HEAT INDEX





USA.gov is the U.S. government's official web portal to all federal, state and local government web resources and services.